K5TWC Weather Reports


time (UTC)temp
C
wind
direction
speed
KPH
gust
KPH
rain 1hr
cm
rain 24hr
cm
rain mn
cm
humidity
%
barometer
mb
20260902192003 36 65 1.6 12.9 0.00 0.00 0.00 47 1014.0
20260902191504 36 90 3.2 16.1 0.00 0.00 0.00 47 1014.1
20260902191004 36 123 3.2 17.7 0.00 0.00 0.00 48 1014.1
20260902190505 36 137 6.4 17.7 0.00 0.00 0.00 48 1014.1
20260902190007 35 128 3.2 11.3 0.00 0.00 0.00 49 1014.2
20260902185503 35 23 0.0 19.3 0.00 0.00 0.00 48 1014.3
20260902185004 35 138 8.0 19.3 0.00 0.00 0.00 49 1014.4
20260902184508 35 62 4.8 16.1 0.00 0.00 0.00 49 1014.5
20260902184004 35 105 0.0 14.5 0.00 0.00 0.00 51 1014.5
20260902183504 35 86 6.4 14.5 0.00 0.00 0.00 50 1014.7
20260902183011 35 44 4.8 12.9 0.00 0.00 0.00 50 1014.8
20260902182504 35 122 1.6 14.5 0.00 0.00 0.00 50 1015.0
20260902182002 35 115 1.6 14.5 0.00 0.00 0.00 50 1015.0
20260902181504 35 96 4.8 14.5 0.00 0.00 0.00 51 1015.2
20260902181003 35 123 1.6 16.1 0.00 0.00 0.00 51 1015.2
20260902180505 35 82 4.8 16.1 0.00 0.00 0.00 51 1015.4
20260902180007 35 122 4.8 12.9 0.00 0.00 0.00 51 1015.5
20260902175504 35 108 4.8 16.1 0.00 0.00 0.00 50 1015.7
20260902175004 34 109 8.0 16.1 0.00 0.00 0.00 53 1015.8
20260902174511 34 153 4.8 16.1 0.00 0.00 0.00 53 1015.9
20260902174003 34 130 4.8 14.5 0.00 0.00 0.00 54 1016.0
20260902173504 34 122 4.8 17.7 0.00 0.00 0.00 54 1016.0
20260902173006 34 119 4.8 17.7 0.00 0.00 0.00 56 1016.1
20260902172505 33 124 1.6 11.3 0.00 0.00 0.00 56 1016.1
20260902172004 33 119 0.0 11.3 0.00 0.00 0.00 58 1016.2
20260902171506 33 323 3.2 11.3 0.00 0.00 0.00 58 1016.4
20260902171003 33 56 4.8 11.3 0.00 0.00 0.00 58 1016.5
20260902170502 33 306 0.0 6.4 0.00 0.00 0.00 60 1016.5
20260902170005 32 88 0.0 12.9 0.00 0.00 0.00 60 1016.6
20260902165502 32 88 3.2 12.9 0.00 0.00 0.00 60 1016.7
20260902165004 32 99 0.0 12.9 0.00 0.00 0.00 60 1016.8
20260902164505 32 86 1.6 12.9 0.00 0.00 0.00 60 1016.8
20260902164003 32 109 0.0 11.3 0.00 0.00 0.00 63 1016.9
20260902163504 32 95 1.6 9.7 0.00 0.00 0.00 62 1016.8
20260902163005 32 129 1.6 11.3 0.00 0.00 0.00 63 1016.9
20260902162504 32 105 1.6 11.3 0.00 0.00 0.00 63 1016.8
20260902162004 32 96 0.0 8.0 0.00 0.00 0.00 62 1017.0
20260902161511 32 53 0.0 8.0 0.00 0.00 0.00 62 1017.0
20260902161004 32 51 0.0 8.0 0.00 0.00 0.00 63 1017.0
20260902160505 32 51 1.6 8.0 0.00 0.00 0.00 63 1017.0
20260902160010 32 178 0.0 4.8 0.00 0.00 0.00 64 1017.0
20260902155505 32 175 0.0 4.8 0.00 0.00 0.00 64 1017.0
20260902155002 32 287 0.0 4.8 0.00 0.00 0.00 64 1017.1
20260902154503 32 148 0.0 11.3 0.00 0.00 0.00 64 1017.0
20260902154003 32 142 1.6 12.9 0.00 0.00 0.00 64 1017.0
20260902153503 32 153 1.6 12.9 0.00 0.00 0.00 65 1017.0
20260902153005 31 136 0.0 6.4 0.00 0.00 0.00 65 1016.9
20260902152504 32 134 1.6 6.4 0.00 0.00 0.00 65 1016.9
20260902152003 31 134 0.0 11.3 0.00 0.00 0.00 66 1016.9
20260902151509 31 135 0.0 12.9 0.00 0.00 0.00 66 1016.9
20260902151004 31 158 0.0 12.9 0.00 0.00 0.00 68 1016.9
20260902150504 31 121 1.6 11.3 0.00 0.00 0.00 68 1016.8
20260902150010 31 133 0.0 8.0 0.00 0.00 0.00 70 1016.8
20260902145506 30 126 1.6 8.0 0.00 0.00 0.00 69 1016.8
20260902145006 31 87 1.6 8.0 0.00 0.00 0.00 68 1016.9
20260902144510 31 128 3.2 8.0 0.00 0.00 0.00 68 1016.8
20260902144004 31 142 0.0 8.0 0.00 0.00 0.00 68 1016.8
20260902143502 31 143 0.0 8.0 0.00 0.00 0.00 68 1016.7
20260902143005 31 162 0.0 3.2 0.00 0.00 0.00 69 1016.7
20260902142504 30 155 0.0 8.0 0.00 0.00 0.00 69 1016.7
20260902142002 30 155 0.0 8.0 0.00 0.00 0.00 70 1016.7
20260902141505 30 155 0.0 9.7 0.00 0.00 0.00 70 1016.7
20260902141008 30 128 3.2 9.7 0.00 0.00 0.00 70 1016.8
20260902140503 30 182 0.0 8.0 0.00 0.00 0.00 71 1016.7
20260902140010 30 180 0.0 8.0 0.00 0.00 0.00 72 1016.7
20260902135504 29 146 0.0 8.0 0.00 0.00 0.00 73 1016.6
20260902135010 29 158 1.6 9.7 0.00 0.00 0.00 74 1016.6
20260902134513 28 160 0.0 12.9 0.00 0.00 0.00 74 1016.5
20260902134006 28 127 1.6 12.9 0.00 0.00 0.00 75 1016.5
20260902133503 28 119 4.8 12.9 0.00 0.00 0.00 74 1016.5
20260902133013 28 130 3.2 8.0 0.00 0.00 0.00 74 1016.5
20260902132509 28 134 0.0 8.0 0.00 0.00 0.00 75 1016.5
20260902132002 27 130 1.6 11.3 0.00 0.00 0.00 75 1016.5
20260902131502 27 121 0.0 14.5 0.00 0.00 0.00 76 1016.5
20260902131004 27 130 4.8 14.5 0.00 0.00 0.00 76 1016.5
20260902130503 27 106 4.8 12.9 0.00 0.00 0.00 76 1016.5
20260902130009 27 115 4.8 14.5 0.00 0.00 0.00 77 1016.4
20260902125503 26 118 8.0 14.5 0.00 0.00 0.00 78 1016.4
20260902125004 26 146 0.0 12.9 0.00 0.00 0.00 79 1016.3
20260902124514 26 161 0.0 8.0 0.00 0.00 0.00 80 1016.3
20260902124011 26 174 0.0 4.8 0.00 0.00 0.00 81 1016.3
20260902123506 25 174 0.0 1.6 0.00 0.00 0.00 82 1016.3
20260902123014 25 174 0.0 8.0 0.00 0.00 0.00 83 1016.2
20260902122507 25 174 0.0 8.0 0.00 0.00 0.00 83 1016.2
20260902122007 25 189 0.0 6.4 0.00 0.00 0.00 83 1016.2
20260902121516 25 190 0.0 3.2 0.00 0.00 0.00 83 1016.2
20260902121008 25 190 0.0 1.6 0.00 0.00 0.00 82 1016.2
20260902120503 25 190 0.0 1.6 0.00 0.00 0.00 82 1016.2
20260902120004 25 190 0.0 0.0 0.00 0.00 0.00 82 1016.2
20260902115503 25 190 0.0 1.6 0.00 0.00 0.00 82 1016.1
20260902115003 25 190 0.0 1.6 0.00 0.00 0.00 82 1016.2
20260902114508 25 190 0.0 1.6 0.00 0.00 0.00 82 1016.3
20260902114004 25 190 0.0 3.2 0.00 0.00 0.00 83 1016.3
20260902113508 25 190 0.0 3.2 0.00 0.00 0.00 83 1016.3
20260902113014 25 190 0.0 1.6 0.00 0.00 0.00 83 1016.3
20260902112507 25 190 0.0 0.0 0.00 0.00 0.00 83 1016.3
20260902112008 25 190 0.0 0.0 0.00 0.00 0.00 83 1016.3
20260902111520 25 190 0.0 0.0 0.00 0.00 0.00 83 1016.3
20260902111006 25 190 0.0 0.0 0.00 0.00 0.00 83 1016.2
20260902110508 25 190 0.0 0.0 0.00 0.00 0.00 83 1016.2
20260902110035 25 190 0.0 0.0 0.00 0.00 0.00 83 1016.2
20260902105508 25 190 0.0 0.0 0.00 0.00 0.00 83 1016.2
20260902105004 25 190 0.0 0.0 0.00 0.00 0.00 82 1016.1
20260902104515 25 190 0.0 0.0 0.00 0.00 0.00 82 1016.1
20260902104002 25 190 0.0 0.0 0.00 0.00 0.00 81 1016.2
20260902103503 26 190 0.0 0.0 0.00 0.00 0.00 81 1016.1
20260902103026 26 190 0.0 0.0 0.00 0.00 0.00 81 1016.1
20260902102506 26 190 0.0 0.0 0.00 0.00 0.00 80 1016.2
20260902102008 26 190 0.0 0.0 0.00 0.00 0.00 80 1016.2
20260902101520 26 190 0.0 0.0 0.00 0.00 0.00 79 1016.1
20260902101008 26 190 0.0 0.0 0.00 0.00 0.00 79 1016.2
20260902100508 26 190 0.0 0.0 0.00 0.00 0.00 79 1016.2
20260902100020 26 190 0.0 0.0 0.00 0.00 0.00 79 1016.2
20260902095510 26 190 0.0 0.0 0.00 0.00 0.00 79 1016.2
20260902095008 26 190 0.0 0.0 0.00 0.00 0.00 79 1016.2
20260902094522 26 190 0.0 0.0 0.00 0.00 0.00 79 1016.2
20260902094008 26 190 0.0 0.0 0.00 0.00 0.00 79 1016.1
20260902093505 26 190 0.0 0.0 0.00 0.00 0.00 79 1016.1
20260902093010 27 190 0.0 0.0 0.00 0.00 0.00 78 1016.1
20260902092503 27 190 0.0 0.0 0.00 0.00 0.00 78 1016.1
20260902092006 27 190 0.0 0.0 0.00 0.00 0.00 77 1015.9
20260902091516 27 190 0.0 0.0 0.00 0.00 0.00 76 1015.9
20260902091006 27 190 0.0 0.0 0.00 0.00 0.00 75 1015.9
20260902090509 27 190 0.0 0.0 0.00 0.00 0.00 74 1015.9
20260902090026 27 190 0.0 0.0 0.00 0.00 0.00 74 1015.9
20260902085508 27 190 0.0 0.0 0.00 0.00 0.00 74 1015.8
20260902085011 27 190 0.0 0.0 0.00 0.00 0.00 73 1015.8
20260902084526 27 190 0.0 0.0 0.00 0.00 0.00 73 1015.8
20260902084009 27 190 0.0 1.6 0.00 0.00 0.00 73 1015.8
20260902083510 27 190 0.0 1.6 0.00 0.00 0.00 73 1015.8
20260902083023 27 190 0.0 1.6 0.00 0.00 0.00 73 1015.8
20260902082508 27 190 0.0 0.0 0.00 0.00 0.00 73 1015.8
20260902082003 28 190 0.0 0.0 0.00 0.00 0.00 73 1015.9
20260902081509 28 190 0.0 0.0 0.00 0.00 0.00 72 1015.8
20260902081006 28 190 0.0 0.0 0.00 0.00 0.00 73 1015.9
20260902080508 28 190 0.0 1.6 0.00 0.00 0.00 73 1015.9
20260902080021 28 190 0.0 1.6 0.00 0.00 0.00 72 1015.9
20260902075508 28 190 0.0 3.2 0.00 0.00 0.00 72 1015.8
20260902075013 28 185 0.0 3.2 0.00 0.00 0.00 72 1015.8
20260902074525 28 185 0.0 1.6 0.00 0.00 0.00 72 1015.9
20260902074009 28 185 0.0 6.4 0.00 0.00 0.00 72 1015.8
20260902073510 28 185 0.0 6.4 0.00 0.00 0.00 72 1015.9
20260902073027 28 190 0.0 4.8 0.00 0.00 0.00 72 1015.9
20260902072510 28 190 0.0 4.8 0.00 0.00 0.00 72 1016.0
20260902072012 28 190 0.0 4.8 0.00 0.00 0.00 71 1016.0
20260902071521 28 182 0.0 6.4 0.00 0.00 0.00 71 1016.0
20260902071003 28 182 0.0 9.7 0.00 0.00 0.00 71 1016.0
20260902070506 28 173 0.0 9.7 0.00 0.00 0.00 71 1016.0
20260902070019 28 165 1.6 9.7 0.00 0.00 0.00 71 1016.0
20260902065507 28 157 0.0 11.3 0.00 0.00 0.00 71 1016.1
20260902065008 28 153 0.0 11.3 0.00 0.00 0.00 70 1016.1
20260902064520 28 159 0.0 9.7 0.00 0.00 0.00 70 1016.1
20260902064007 28 211 0.0 8.0 0.00 0.00 0.00 70 1016.1
20260902063510 29 183 0.0 9.7 0.00 0.00 0.00 70 1016.1
20260902063043 29 201 0.0 9.7 0.00 0.00 0.00 70 1016.1
20260902062512 29 175 0.0 11.3 0.00 0.00 0.00 69 1016.0
20260902062012 29 195 0.0 12.9 0.00 0.00 0.00 69 1015.9
20260902061534 29 200 0.0 12.9 0.00 0.00 0.00 69 1015.9
20260902061012 29 199 0.0 9.7 0.00 0.00 0.00 70 1016.0
20260902060509 29 210 0.0 9.7 0.00 0.00 0.00 70 1016.0
20260902060038 29 190 1.6 11.3 0.00 0.00 0.00 70 1016.0
20260902055506 29 164 0.0 11.3 0.00 0.00 0.00 70 1016.0
20260902055004 29 188 0.0 6.4 0.00 0.00 0.00 69 1016.0
20260902054514 30 182 0.0 6.4 0.00 0.00 0.00 70 1015.9
20260902054009 30 200 0.0 4.8 0.00 0.00 0.00 69 1015.9
20260902053507 30 192 0.0 12.9 0.00 0.00 0.00 69 1015.9
20260902053021 30 193 0.0 12.9 0.00 0.00 0.00 69 1015.9
20260902052512 30 161 0.0 12.9 0.00 0.00 0.00 69 1015.9
20260902052012 30 173 1.6 12.9 0.00 0.00 0.00 68 1015.8
20260902051531 30 159 1.6 16.1 0.00 0.00 0.00 68 1015.7
20260902051009 30 179 4.8 16.1 0.00 0.00 0.00 68 1015.8
20260902050513 30 178 3.2 16.1 0.00 0.00 0.00 67 1015.8
20260902050032 30 177 6.4 14.5 0.00 0.00 0.00 67 1015.8
20260902045513 30 159 1.6 12.9 0.00 0.00 0.00 67 1015.8
20260902045014 30 167 0.0 8.0 0.00 0.00 0.00 67 1015.8
20260902044557 30 167 0.0 8.0 0.00 0.00 0.00 66 1015.7
20260902044008 30 187 0.0 12.9 0.00 0.00 0.00 66 1015.7
20260902043507 30 172 4.8 12.9 0.00 0.00 0.00 65 1015.6
20260902043016 30 133 0.0 12.9 0.00 0.00 0.00 65 1015.6
20260902042508 31 153 3.2 12.9 0.00 0.00 0.00 65 1015.6
20260902042016 31 209 1.6 12.9 0.00 0.00 0.00 65 1015.6
20260902041532 31 176 1.6 12.9 0.00 0.00 0.00 64 1015.5
20260902041015 31 192 0.0 14.5 0.00 0.00 0.00 64 1015.5
20260902040514 31 201 6.4 16.1 0.00 0.00 0.00 64 1015.5
20260902040029 31 165 4.8 16.1 0.00 0.00 0.00 63 1015.5
20260902035503 31 163 1.6 19.3 0.00 0.00 0.00 63 1015.4
20260902035003 31 157 6.4 20.9 0.00 0.00 0.00 62 1015.4
20260902034510 31 159 6.4 20.9 0.00 0.00 0.00 61 1015.3
20260902034004 31 217 6.4 22.5 0.00 0.00 0.00 59 1015.3
20260902033504 31 127 4.8 22.5 0.00 0.00 0.00 59 1015.2
20260902033014 31 128 4.8 11.3 0.00 0.00 0.00 61 1015.2
20260902032511 31 138 0.0 1.6 0.00 0.00 0.00 61 1015.1
20260902032011 31 138 0.0 1.6 0.00 0.00 0.00 60 1015.0
20260902031537 32 138 0.0 0.0 0.00 0.00 0.00 60 1015.0
20260902031012 32 138 0.0 0.0 0.00 0.00 0.00 59 1015.0
20260902030515 32 138 0.0 4.8 0.00 0.00 0.00 58 1014.9
20260902030024 32 138 0.0 8.0 0.00 0.00 0.00 58 1014.9
20260902025512 32 138 3.2 8.0 0.00 0.00 0.00 58 1014.7
20260902025012 32 140 0.0 3.2 0.00 0.00 0.00 58 1014.7
20260902024530 32 140 0.0 8.0 0.00 0.00 0.00 56 1014.7
20260902024007 32 140 0.0 8.0 0.00 0.00 0.00 56 1014.6
20260902023502 32 142 0.0 6.4 0.00 0.00 0.00 56 1014.5
20260902023020 32 140 1.6 8.0 0.00 0.00 0.00 56 1014.4
20260902022504 33 136 1.6 8.0 0.00 0.00 0.00 56 1014.4
20260902022009 33 134 1.6 8.0 0.00 0.00 0.00 56 1014.2
20260902021518 33 150 0.0 4.8 0.00 0.00 0.00 55 1014.1
20260902021010 33 150 0.0 8.0 0.00 0.00 0.00 55 1014.0
20260902020509 33 151 1.6 8.0 0.00 0.00 0.00 55 1014.0
20260902020024 33 165 0.0 1.6 0.00 0.00 0.00 55 1014.0
20260902015510 33 165 0.0 6.4 0.00 0.00 0.00 55 1013.8
20260902015010 33 165 0.0 6.4 0.00 0.00 0.00 55 1013.8
20260902014536 33 165 0.0 6.4 0.00 0.00 0.00 54 1013.7
20260902014012 33 166 0.0 6.4 0.00 0.00 0.00 55 1013.6
20260902013515 33 167 0.0 4.8 0.00 0.00 0.00 55 1013.6
20260902013032 33 167 0.0 4.8 0.00 0.00 0.00 55 1013.6
20260902012507 33 168 0.0 6.4 0.00 0.00 0.00 55 1013.6
20260902012003 34 167 0.0 6.4 0.00 0.00 0.00 56 1013.5
20260902011519 34 162 0.0 11.3 0.00 0.00 0.00 54 1013.5
20260902011007 34 158 0.0 11.3 0.00 0.00 0.00 53 1013.5
20260902010508 35 158 0.0 11.3 0.00 0.00 0.00 52 1013.5
20260902010019 35 161 1.6 11.3 0.00 0.00 0.00 50 1013.4
20260902005510 35 190 0.0 0.0 0.00 0.00 0.00 49 1013.4
20260902005010 35 190 0.0 0.0 0.00 0.00 0.00 49 1013.4
20260902004524 36 190 0.0 0.0 0.00 0.00 0.00 48 1013.4
20260902004012 36 190 0.0 0.0 0.00 0.00 0.00 48 1013.3
20260902003515 36 190 0.0 0.0 0.00 0.00 0.00 46 1013.4
20260902003029 36 190 0.0 0.0 0.00 0.00 0.00 46 1013.4
20260902002518 36 190 0.0 0.0 0.00 0.00 0.00 46 1013.5
20260902002014 36 190 0.0 0.0 0.00 0.00 0.00 46 1013.4
20260902001531 36 190 0.0 0.0 0.00 0.00 0.00 46 1013.5
20260902001006 36 190 0.0 0.0 0.00 0.00 0.00 47 1013.5
20260902000507 36 190 0.0 3.2 0.00 0.00 0.00 46 1013.6
20260902000015 36 188 0.0 3.2 0.00 0.00 0.00 46 1013.6
20260901235506 36 188 0.0 4.8 0.00 0.00 0.00 46 1013.5
20260901235008 36 190 0.0 8.0 0.00 0.00 0.00 46 1013.5
20260901234520 36 133 0.0 12.9 0.00 0.00 0.00 46 1013.6
20260901234008 36 126 0.0 12.9 0.00 0.00 0.00 45 1013.7
20260901233510 36 186 0.0 12.9 0.00 0.00 0.00 46 1013.7
20260901233028 36 153 0.0 11.3 0.00 0.00 0.00 46 1013.7
20260901232515 36 152 4.8 12.9 0.00 0.00 0.00 45 1013.8
20260901232015 36 150 3.2 12.9 0.00 0.00 0.00 45 1013.8
20260901231534 36 143 3.2 14.5 0.00 0.00 0.00 44 1013.9
20260901231015 36 159 1.6 14.5 0.00 0.00 0.00 44 1013.9
20260901230514 37 126 4.8 14.5 0.00 0.00 0.00 44 1013.9
20260901230029 37 150 1.6 12.9 0.00 0.00 0.00 44 1013.9
20260901225506 37 208 0.0 4.8 0.00 0.00 0.00 45 1013.9
20260901225007 36 207 0.0 8.0 0.00 0.00 0.00 46 1013.9
20260901224518 36 179 1.6 8.0 0.00 0.00 0.00 45 1013.9
20260901224015 36 189 0.0 8.0 0.00 0.00 0.00 45 1013.9
20260901223508 36 196 0.0 8.0 0.00 0.00 0.00 45 1013.9
20260901223023 36 175 0.0 6.4 0.00 0.00 0.00 44 1014.0
20260901222509 37 187 0.0 11.3 0.00 0.00 0.00 45 1013.9
20260901222017 37 175 0.0 12.9 0.00 0.00 0.00 45 1013.9
20260901221526 37 172 0.0 12.9 0.00 0.00 0.00 44 1014.0
20260901221014 37 152 4.8 11.3 0.00 0.00 0.00 43 1013.9
20260901220516 37 159 1.6 11.3 0.00 0.00 0.00 43 1014.0
20260901220032 37 157 1.6 11.3 0.00 0.00 0.00 43 1014.0
20260901215516 37 209 1.6 11.3 0.00 0.00 0.00 43 1014.1
20260901215019 37 175 0.0 9.7 0.00 0.00 0.00 42 1014.1
20260901214537 37 201 0.0 9.7 0.00 0.00 0.00 42 1014.1
20260901214007 38 173 1.6 11.3 0.00 0.00 0.00 43 1014.2
20260901213507 38 203 1.6 16.1 0.00 0.00 0.00 43 1014.2
20260901213026 38 159 4.8 16.1 0.00 0.00 0.00 43 1014.2
20260901212508 38 142 0.0 14.5 0.00 0.00 0.00 42 1014.3
20260901212016 38 159 4.8 16.1 0.00 0.00 0.00 42 1014.4
20260901211525 37 128 0.0 16.1 0.00 0.00 0.00 41 1014.4
20260901211013 37 116 4.8 14.5 0.00 0.00 0.00 42 1014.4
20260901210512 37 129 1.6 14.5 0.00 0.00 0.00 41 1014.4
20260901210027 37 140 0.0 14.5 0.00 0.00 0.00 42 1014.5
20260901205516 37 168 3.2 16.1 0.00 0.00 0.00 43 1014.5
20260901205016 37 120 3.2 16.1 0.00 0.00 0.00 43 1014.5
20260901204532 37 86 3.2 16.1 0.00 0.00 0.00 41 1014.5
20260901204018 37 114 1.6 16.1 0.00 0.00 0.00 42 1014.5
20260901203518 37 140 8.0 16.1 0.00 0.00 0.00 42 1014.7
20260901203033 37 136 3.2 16.1 0.00 0.00 0.00 43 1014.7
20260901202508 37 131 0.0 16.1 0.00 0.00 0.00 44 1014.7
20260901202011 37 128 11.3 16.1 0.00 0.00 0.00 44 1014.8
20260901201521 37 144 3.2 11.3 0.00 0.00 0.00 44 1014.9
20260901201013 37 168 1.6 8.0 0.00 0.00 0.00 45 1014.9
20260901200510 37 191 0.0 8.0 0.00 0.00 0.00 46 1014.9
20260901200028 36 134 0.0 4.8 0.00 0.00 0.00 46 1015.0
20260901195512 36 134 0.0 11.3 0.00 0.00 0.00 47 1015.2
20260901195015 36 119 0.0 12.9 0.00 0.00 0.00 47 1015.2
20260901194530 36 115 3.2 12.9 0.00 0.00 0.00 47 1015.4
20260901194016 36 124 3.2 12.9 0.00 0.00 0.00 47 1015.5
20260901193516 37 131 3.2 17.7 0.00 0.00 0.00 48 1015.5
20260901193034 36 146 0.0 17.7 0.00 0.00 0.00 48 1015.6
20260901192521 36 114 4.8 16.1 0.00 0.00 0.00 48 1015.6